Satellite-Ground Cal/Val Region Overpasses Predictions

Prediction of Satellite NPP Overpassing Cal/Val Region: PacNW

Region Location: (Latitude: 10.00, Longitude: 139.50) to (Latitude: 22.70, Longitude: 165.60).

Table of predicted overpasses for the next 14.0 days since TLE Epoch: 6/5/2015
Interval Starting Time Starting Location Ending Time Ending Location
1 06/06/2015 03:47:27 ( 10.04, 144.02) 06/06/2015 03:51:02 ( 22.66, 141.03)
2 06/06/2015 14:39:00 ( 18.50, 165.59) 06/06/2015 14:41:24 ( 10.04, 163.62)
3 06/06/2015 16:19:19 ( 22.65, 141.24) 06/06/2015 16:21:21 ( 15.49, 139.50)
4 06/07/2015 03:28:24 ( 10.03, 148.78) 06/07/2015 03:31:59 ( 22.65, 145.79)
5 06/07/2015 16:00:17 ( 22.67, 146.00) 06/07/2015 16:03:52 ( 10.05, 143.00)
6 06/08/2015 03:09:22 ( 10.01, 153.54) 06/08/2015 03:12:58 ( 22.69, 150.53)
7 06/08/2015 15:41:14 ( 22.69, 150.76) 06/08/2015 15:44:50 ( 10.00, 147.75)
8 06/09/2015 02:50:20 ( 10.05, 158.29) 06/09/2015 02:53:55 ( 22.68, 155.29)
9 06/09/2015 15:22:13 ( 22.64, 155.50) 06/09/2015 15:25:48 ( 10.02, 152.51)
10 06/10/2015 02:31:18 ( 10.04, 163.05) 06/10/2015 02:34:53 ( 22.66, 160.05)
11 06/10/2015 15:03:10 ( 22.66, 160.26) 06/10/2015 15:06:45 ( 10.03, 157.26)
12 06/11/2015 02:14:56 ( 19.48, 165.59) 06/11/2015 02:15:50 ( 22.65, 164.81)
13 06/11/2015 03:53:45 ( 10.03, 142.43) 06/11/2015 03:57:15 ( 22.36, 139.51)
14 06/11/2015 14:44:08 ( 22.67, 165.02) 06/11/2015 14:47:43 ( 10.05, 162.02)
15 06/11/2015 16:25:38 ( 22.66, 139.64) 06/11/2015 16:25:47 ( 22.13, 139.51)
16 06/12/2015 03:34:43 ( 10.02, 147.19) 06/12/2015 03:38:18 ( 22.64, 144.19)
17 06/12/2015 16:06:35 ( 22.67, 144.40) 06/12/2015 16:10:10 ( 10.05, 141.41)
18 06/13/2015 03:15:40 ( 10.01, 151.95) 06/13/2015 03:19:16 ( 22.69, 148.94)
19 06/13/2015 15:47:33 ( 22.69, 149.16) 06/13/2015 15:51:09 ( 10.00, 146.15)
20 06/14/2015 02:56:39 ( 10.05, 156.69) 06/14/2015 03:00:14 ( 22.68, 153.70)
21 06/14/2015 15:28:31 ( 22.70, 153.92) 06/14/2015 15:32:07 ( 10.02, 150.91)
22 06/15/2015 02:37:36 ( 10.04, 161.45) 06/15/2015 02:41:11 ( 22.67, 158.45)
23
